Date,TemperatureHighF,TemperatureAvgF,TemperatureLowF,DewpointHighF,DewpointAvgF,DewpointLowF,HumidityHigh,HumidityAvg,HumidityLow,PressureMaxIn,PressureMinIn,WindSpeedMaxMPH,WindSpeedAvgMPH,GustSpeedMaxMPH,PrecipitationSumIn
2013-1-1,44.4,32.0,19.3,27.1,21.3,15.2,93,67,32,30.36,30.22,6,2,10,0.01
2013-1-2,50.6,36.8,28.0,25.7,22.4,19.3,84,58,33,30.24,30.08,7,2,10,0.00
2013-1-3,47.3,36.3,27.3,32.4,25.6,18.6,87,66,46,30.28,30.09,9,4,14,0.00
2013-1-4,46.4,34.8,26.4,28.2,26.2,23.3,90,73,46,30.38,30.27,6,2,10,0.00
2013-1-5,55.6,36.0,22.3,31.2,21.1,13.5,92,62,20,30.44,30.32,4,2,7,0.00
2013-1-6,56.2,41.7,28.6,24.1,20.2,16.2,70,45,22,30.35,30.00,8,2,10,0.00
2013-1-7,53.3,40.0,28.7,27.0,22.5,15.2,75,52,24,30.00,29.82,14,4,17,0.00
2013-1-8,57.9,42.8,28.8,29.7,24.3,17.3,83,52,22,30.14,29.92,10,3,14,0.00
2013-1-9,59.9,42.2,26.1,25.3,17.9,9.7,76,43,14,30.31,30.13,6,2,10,0.00
2013-1-10,62.4,47.0,28.2,22.1,19.2,16.6,68,36,18,30.14,29.83,17,7,26,0.00
2013-1-11,48.2,35.0,20.3,33.1,16.8,1.6,84,49,19,30.03,29.84,19,9,28,0.00
2013-1-12,36.9,24.3,14.6,11.2,8.0,3.8,75,52,26,30.25,30.01,11,4,18,0.00
2013-1-13,42.9,26.4,11.8,11.6,5.5,-4.2,78,45,15,30.26,30.10,11,4,15,0.00
2013-1-14,37.2,25.7,15.9,7.8,3.6,-1.3,64,40,24,30.30,30.15,13,6,16,0.00
2013-1-15,37.0,23.4,9.6,5.8,-0.4,-8.1,70,39,14,30.53,30.30,9,3,14,0.00
2013-1-16,52.8,35.8,18.1,8.9,2.9,-3.4,45,26,14,30.53,30.36,10,3,16,0.00
2013-1-17,59.2,44.3,29.6,14.1,10.8,5.7,38,26,16,30.39,30.25,7,4,11,0.00
2013-1-18,62.4,45.0,25.8,18.7,13.9,9.0,61,31,13,30.31,30.16,6,2,9,0.00
2013-1-19,68.5,49.7,30.9,28.4,19.6,15.0,56,33,16,30.31,30.16,5,3,9,0.00
2013-1-20,61.8,44.6,33.1,31.1,27.7,21.8,65,53,31,30.18,30.03,5,2,8,0.01
2013-1-21,70.0,52.3,35.9,34.1,29.6,26.8,72,45,25,30.13,30.02,6,2,10,0.00
2013-1-22,70.3,51.5,36.4,35.0,28.2,25.1,75,45,20,30.20,30.09,6,3,10,0.00
2013-1-23,70.8,52.7,36.4,31.6,28.2,25.5,66,42,22,30.27,30.14,6,2,10,0.00
2013-1-24,65.3,55.9,49.1,41.5,37.2,31.0,71,51,34,30.21,30.11,7,2,10,0.00
2013-1-25,67.4,56.2,41.2,48.4,41.6,37.3,86,60,40,30.17,29.97,9,2,14,0.00
2013-1-26,62.9,52.8,47.5,52.7,48.2,44.8,96,85,59,29.98,29.85,16,5,22,0.45
2013-1-27,58.8,50.5,45.9,47.4,43.9,41.1,93,79,55,30.00,29.92,11,5,16,0.01
2013-1-28,51.9,43.9,32.0,43.5,37.7,29.7,92,79,55,29.97,29.86,18,10,26,0.25
2013-1-29,41.6,34.4,29.3,29.7,22.8,18.2,93,64,39,30.28,29.97,18,10,28,0.01
2013-1-30,49.4,36.2,25.5,24.2,18.7,9.4,81,54,22,30.43,30.27,7,3,11,0.00
2013-1-31,55.2,40.8,25.7,24.4,21.8,17.7,80,50,26,30.34,30.21,6,2,12,0.00